Stations météo

Publicité
Le Luc, France (7675): Température de l'air & dewpoint: 31.03.2020 15:00:00 - 06.04.2020 15:00:00 (CEST)Le Luc, France (7675): Température de l'air 5cm: 31.03.2020 15:00:00 - 06.04.2020 15:00:00 (CEST)Le Luc, France (7675): Vitesse du vent & gusts: 31.03.2020 15:00:00 - 06.04.2020 15:00:00 (CEST)Le Luc, France (7675): Direction du vent: 31.03.2020 15:00:00 - 06.04.2020 15:00:00 (CEST)Le Luc, France (7675): reduced air pressure: 31.03.2020 15:00:00 - 06.04.2020 15:00:00 (CEST)Le Luc, France (7675): visibility: 31.03.2020 15:00:00 - 06.04.2020 15:00:00 (CEST)Le Luc, France (7675): Ensoleillement: 31.03.2020 15:00:00 - 06.04.2020 15:00:00 (CEST)Le Luc, France (7675): Quantités de précipitations: 31.03.2020 15:00:00 - 06.04.2020 15:00:00 (CEST)
Date & Time tt [°C] td [°C] tt 5cm [°C] ff [km/h] ff [knt] fx [km/h] fx [knt] dd ppp [hPa] vv [km] sd [min] rr [mm]
06.04.2020 15:00:00 21,2 -1,4 26,1 24 13 39 21 ESE 1024,8 38 60 0,0
06.04.2020 14:00:00 21,4 -0,6 25,7 25 13 44 24 ESE 1024,9 30 60 0,0
06.04.2020 13:00:00 21,0 -0,4 25,4 21 11 36 19 ESE 1024,9 20 60 0,0
06.04.2020 12:00:00 19,8 1,2 23,9 9 5 17 9 E 1025,1 34 60 0,0
06.04.2020 11:00:00 15,0 4,4 19,8 2 1 7 4 W 1025,3 18 60 0,0
06.04.2020 10:00:00 11,5 3,3 13,0 0 0 10 5 N 1025,2 18 60 0,0
06.04.2020 09:00:00 7,4 2,1 3,8 0 0 4 2 N 1024,9 20 60 0,0
06.04.2020 08:00:00 2,2 -0,6 -2,0 0 0 6 3 N 1024,7 18 32 0,0
06.04.2020 07:00:00 0,2 -1,7 -2,0 0 0 4 2 N 1024,3 19 0 0,0
06.04.2020 06:00:00 0,8 -1,6 -1,4 0 0 4 2 N 1024,1 19 0 0,0
06.04.2020 05:00:00 1,9 -1,0 -0,2 0 0 5 3 N 1023,9 20 0 0,0
06.04.2020 04:00:00 2,2 -0,4 -0,1 0 0 4 2 N 1023,8 29 0 0,0
06.04.2020 03:00:00 4,0 0,1 1,1 0 0 7 4 N 1023,8 20 0 0,0
06.04.2020 02:00:00 4,0 0,5 1,3 0 0 4 2 N 1023,8 30 0 0,0
06.04.2020 01:00:00 5,6 0,9 2,7 0 0 5 3 N 1023,5 19 0 0,0
06.04.2020 00:00:00 6,5 1,0 3,0 0 0 4 2 N 1023,3 39 0 0,0
05.04.2020 23:00:00 8,6 1,3 4,6 0 0 4 2 N 1022,8 32 0 0,0
05.04.2020 22:00:00 10,4 1,7 6,6 0 0 3 2 N 1022,3 42 0 0,0
05.04.2020 21:00:00 12,9 1,2 9,3 0 0 11 6 N 1021,7 38 0 0,0
05.04.2020 20:00:00 16,2 0,3 14,8 9 5 15 8 SE 1021,0 29 15 0,0
05.04.2020 19:00:00 18,0 0,6 19,9 12 7 28 15 ESE 1020,6 23 60 0,0
05.04.2020 18:00:00 18,9 0,9 22,4 14 8 33 18 ESE 1020,6 27 60 0,0
05.04.2020 17:00:00 19,3 0,3 22,2 24 13 36 20 ESE 1020,7 25 60 0,0
05.04.2020 16:00:00 20,0 -0,1 24,8 16 8 36 19 ESE 1020,9 23 60 0,0
05.04.2020 15:00:00 19,7 0,7 24,4 22 12 37 20 E 1021,6 24 60 0,0
05.04.2020 14:00:00 19,7 0,2 24,4 21 11 35 19 E 1022,0 19 60 0,0
05.04.2020 13:00:00 19,4 -0,1 23,9 25 14 36 20 ESE 1022,5 20 60 0,0
05.04.2020 12:00:00 18,7 1,7 23,9 15 8 24 13 E 1023,0 35 60 0,0
05.04.2020 11:00:00 15,4 3,5 19,9 0 0 6 3 N 1023,5 31 60 0,0
05.04.2020 10:00:00 10,5 2,1 10,8 0 0 5 3 N 1023,7 40 60 0,0
05.04.2020 09:00:00 5,5 0,7 4,3 3 2 6 3 ESE 1023,9 42 60 0,0
05.04.2020 08:00:00 1,7 -1,2 -2,3 0 0 4 2 N 1023,7 45 31 0,0
05.04.2020 07:00:00 -0,3 -2,5 -2,0 2 1 6 3 E 1023,3 45 0 0,0
05.04.2020 06:00:00 1,1 -2,1 -1,4 0 0 7 4 N 1022,9 47 0 0,0
05.04.2020 05:00:00 2,0 -1,8 -0,5 0 0 3 1 N 1022,8 49 0 0,0
05.04.2020 04:00:00 2,1 -1,7 -0,4 0 0 4 2 N 1022,8 49 0 0,0
05.04.2020 03:00:00 3,4 -1,4 0,6 0 0 4 2 N 1022,7 20 0 0,0
05.04.2020 02:00:00 3,9 -0,7 1,0 4 2 7 4 WNW 1023,1 49 0 0,0
05.04.2020 01:00:00 4,9 -1,6 2,0 0 0 4 2 N 1022,8 50 0 0,0
05.04.2020 00:00:00 6,0 -1,4 3,3 0 0 4 2 N 1022,7 20 0 0,0
04.04.2020 23:00:00 7,1 -0,9 4,0 0 0 2 1 N 1022,3 50 0 0,0
04.04.2020 22:00:00 9,6 -1,5 5,8 0 0 7 4 N 1021,8 50 0 0,0
04.04.2020 21:00:00 14,0 -2,9 9,3 3 2 10 5 WSW 1021,1 50 0 0,0
04.04.2020 20:00:00 16,8 -3,9 14,8 8 4 22 12 WSW 1020,1 20 14 0,0
04.04.2020 19:00:00 19,2 -2,5 22,0 8 5 21 11 SW 1019,5 50 60 0,0
04.04.2020 18:00:00 19,8 -4,5 24,2 14 8 27 15 SE 1019,2 49 60 0,0
04.04.2020 17:00:00 20,2 -5,7 22,2 17 9 29 16 ESE 1019,3 40 60 0,0
04.04.2020 16:00:00 20,4 -2,7 26,1 16 9 32 17 SE 1019,4 20 60 0,0
04.04.2020 15:00:00 20,4 -4,0 25,6 15 8 29 15 SE 1019,9 28 60 0,0
04.04.2020 14:00:00 20,0 -1,8 25,9 14 8 28 15 E 1020,0 39 60 0,0
04.04.2020 13:00:00 20,3 -2,1 25,7 18 10 29 16 ESE 1020,3 20 60 0,0
04.04.2020 12:00:00 18,4 4,9 24,4 6 3 19 10 E 1020,4 38 60 0,0
04.04.2020 11:00:00 14,4 4,9 18,6 3 1 5 3 ESE 1020,7 33 60 0,0
04.04.2020 10:00:00 10,5 4,4 12,7 0 0 6 3 N 1020,6 35 60 0,0
04.04.2020 09:00:00 5,6 3,3 4,3 0 0 5 3 N 1020,4 20 60 0,0
04.04.2020 08:00:00 1,7 0,1 -1,7 0 0 4 2 N 1020,0 19 29 0,0
04.04.2020 07:00:00 0,8 -0,4 -2,4 0 0 3 1 N 1019,2 19 0 0,0
04.04.2020 06:00:00 1,0 -0,3 -1,3 0 0 5 3 N 1018,6 20 0 0,0
04.04.2020 05:00:00 2,3 1,0 -1,1 0 0 4 2 N 1018,4 29 0 0,0
04.04.2020 04:00:00 3,1 1,5 0,4 0 0 5 3 N 1017,9 41 0 0,0
04.04.2020 03:00:00 3,3 1,2 1,1 0 0 4 2 N 1017,8 35 0 0,0
04.04.2020 02:00:00 4,6 2,6 2,2 3 1 5 3 W 1017,5 40 0 0,0
04.04.2020 01:00:00 6,0 3,5 3,5 3 1 5 3 WSW 1017,0 37 0 0,0
04.04.2020 00:00:00 7,0 3,8 3,9 0 0 5 3 N 1016,7 46 0 0,0
03.04.2020 23:00:00 8,9 4,5 6,4 3 2 7 4 ESE 1016,2 48 0 0,0
03.04.2020 22:00:00 11,5 5,8 8,8 3 2 10 5 WSW 1015,7 47 0 0,0
03.04.2020 21:00:00 12,0 5,8 8,9 4 2 14 8 NNW 1014,9 50 0 0,0
03.04.2020 20:00:00 14,3 5,4 13,1 9 5 21 12 SW 1014,2 50 13 0,0
03.04.2020 19:00:00 16,4 1,3 19,0 12 6 20 11 SE 1013,5 45 60 0,0
03.04.2020 18:00:00 17,7 1,6 23,5 7 4 19 10 E 1013,1 39 60 0,0
03.04.2020 17:00:00 17,5 0,2 20,1 8 5 22 12 SE 1013,1 34 60 0,0
03.04.2020 16:00:00 17,5 0,6 23,9 11 6 22 12 ESE 1013,3 36 60 0,0
03.04.2020 15:00:00 16,6 0,2 22,8 9 5 23 12 SE 1013,3 35 60 0,0
03.04.2020 14:00:00 16,2 0,7 21,7 11 6 27 15 SE 1013,6 33 60 0,0
03.04.2020 13:00:00 15,8 1,1 20,7 21 12 30 16 SE 1013,8 20 60 0,0
03.04.2020 12:00:00 14,4 4,4 20,2 10 5 19 11 NE 1013,9 20 60 0,0
03.04.2020 11:00:00 12,1 4,6 16,7 6 3 11 6 NE 1014,0 20 60 0,0
03.04.2020 10:00:00 8,7 3,9 11,4 0 0 11 6 N 1013,9 25 60 0,0
03.04.2020 09:00:00 5,4 2,7 2,4 0 0 9 5 N 1013,6 20 60 0,0
03.04.2020 08:00:00 0,4 -1,0 -1,9 0 0 6 3 N 1013,5 19 27 0,0
03.04.2020 07:00:00 -0,2 -1,8 -2,1 0 0 6 3 N 1013,1 17 0 0,0
03.04.2020 06:00:00 0,6 -0,4 -1,8 0 0 5 3 N 1012,8 19 0 0,0
03.04.2020 05:00:00 0,9 -1,0 -1,0 2 1 6 3 E 1012,7 20 0 0,0
03.04.2020 04:00:00 2,1 0,5 -0,7 3 1 5 3 WSW 1012,7 28 0 0,0
03.04.2020 03:00:00 1,7 -0,2 -0,8 2 1 4 2 WSW 1013,0 33 0 0,0
03.04.2020 02:00:00 2,4 0,3 -0,6 0 0 3 1 N 1013,4 34 0 0,0
03.04.2020 01:00:00 3,3 0,7 0,5 0 0 3 2 N 1013,7 46 0 0,0
03.04.2020 00:00:00 3,6 0,8 1,3 2 1 5 3 NNW 1014,0 43 0 0,0
02.04.2020 23:00:00 5,8 1,9 3,1 2 1 10 5 W 1014,0 36 0 0,0
02.04.2020 22:00:00 8,0 2,4 5,1 4 2 9 5 NNW 1013,7 47 0 0,0
02.04.2020 21:00:00 8,6 2,6 6,3 4 2 14 7 NNE 1013,2 49 0 0,0
02.04.2020 20:00:00 10,6 2,7 9,4 9 5 22 12 E 1012,3 20 11 0,0
02.04.2020 19:00:00 13,4 2,6 15,8 11 6 19 10 ESE 1011,9 36 60 0,0
02.04.2020 18:00:00 13,9 1,5 17,1 9 5 13 7 E 1012,2 35 56 0,0
02.04.2020 17:00:00 14,0 1,9 15,9 8 4 23 13 ESE 1012,8 33 27 0,0
02.04.2020 16:00:00 14,2 1,5 16,2 9 5 23 12 ESE 1013,2 30 44 0,0
02.04.2020 15:00:00 13,0 1,0 16,2 9 5 26 14 SE 1013,7 40 46 0,0
02.04.2020 14:00:00 12,8 2,0 12,2 14 8 23 12 ESE 1014,4 20 16 0,0
02.04.2020 13:00:00 11,1 1,6 12,0 11 6 22 12 E 1015,1 20 0 0,0
02.04.2020 12:00:00 11,6 1,8 13,5 16 8 24 13 ESE 1015,2 37 0 0,0
02.04.2020 11:00:00 11,5 2,2 16,0 8 4 15 8 E 1015,2 33 54 0,0
02.04.2020 10:00:00 8,0 1,6 9,5 2 1 4 2 SW 1015,2 20 57 0,0
02.04.2020 09:00:00 2,7 0,1 -1,0 0 0 0 0 N 1015,4 20 25 0,0
02.04.2020 08:00:00 -0,7 -2,3 -2,9 0 0 4 2 N 1015,7 39 0 0,0
02.04.2020 07:00:00 -0,7 -2,3 -3,3 3 1 3 2 WSW 1015,5 40 0 0,0
02.04.2020 06:00:00 -0,3 -2,0 -3,1 0 0 2 1 N 1015,5 39 0 0,0
02.04.2020 05:00:00 -0,6 -2,3 -2,3 0 0 3 1 N 1015,9 43 0 0,0
02.04.2020 04:00:00 1,0 -1,1 -1,8 3 1 5 3 W 1016,3 39 0 0,0
02.04.2020 03:00:00 0,6 -1,5 -1,8 0 0 4 2 N 1016,7 48 0 0,0
02.04.2020 02:00:00 1,9 -1,2 -0,5 0 0 3 2 N 1017,2 50 0 0,0
02.04.2020 01:00:00 3,0 -0,6 0,0 3 2 4 2 W 1017,5 50 0 0,0
02.04.2020 00:00:00 4,3 -0,5 2,3 0 0 3 2 N 1017,6 50 0 0,0
01.04.2020 23:00:00 5,3 -0,3 3,0 3 1 5 3 W 1017,5 50 0 0,0
01.04.2020 22:00:00 6,1 -0,2 2,9 0 0 4 2 N 1017,5 50 0 0,0
01.04.2020 21:00:00 8,3 -0,2 5,9 4 2 16 9 ENE 1017,3 50 0 0,0
01.04.2020 20:00:00 9,4 -0,2 8,5 11 6 24 13 E 1017,1 50 10 0,0
01.04.2020 19:00:00 11,3 0,1 13,5 18 10 26 14 ESE 1017,4 43 60 0,0
01.04.2020 18:00:00 12,1 -0,4 16,4 16 9 33 18 ESE 1017,2 45 60 0,0
01.04.2020 17:00:00 12,7 -0,6 15,1 19 11 39 21 SE 1017,3 39 57 0,0
01.04.2020 16:00:00 13,0 -0,7 17,7 22 12 45 24 ESE 1017,8 39 58 0,0
01.04.2020 15:00:00 12,6 -1,0 15,7 22 12 37 20 E 1018,4 20 55 0,0
01.04.2020 14:00:00 12,8 -0,1 16,8 23 12 51 28 ESE 1019,0 34 60 0,0
01.04.2020 13:00:00 12,2 -0,4 14,8 25 13 43 23 E 1019,6 35 51 0,0
01.04.2020 12:00:00 12,2 0,3 13,8 26 14 47 25 E 1020,2 37 32 0,0
01.04.2020 11:00:00 11,6 -0,9 12,5 26 14 46 25 E 1020,8 31 52 0,0
01.04.2020 10:00:00 11,1 -0,4 12,2 23 12 35 19 E 1020,7 41 54 0,0
01.04.2020 09:00:00 9,8 -0,4 8,5 14 8 23 12 NE 1020,5 50 60 0,0
01.04.2020 08:00:00 7,6 -1,4 3,9 11 6 16 9 NE 1020,4 50 24 0,0
01.04.2020 07:00:00 7,6 -3,0 5,7 11 6 24 13 ENE 1020,2 50 0 0,0
01.04.2020 06:00:00 8,2 -0,3 6,7 13 7 29 16 E 1020,0 50 0 0,0
01.04.2020 05:00:00 8,8 0,0 7,1 14 8 35 19 E 1020,0 50 0 0,0
01.04.2020 04:00:00 9,2 0,6 7,7 16 8 36 19 E 1020,2 50 0 0,0
01.04.2020 03:00:00 10,3 1,6 9,5 20 11 37 20 E 1020,4 48 0 0,0
01.04.2020 02:00:00 10,8 1,9 10,2 20 11 41 22 E 1020,3 50 0 0,0
01.04.2020 01:00:00 10,9 1,9 8,3 15 8 29 16 E 1020,0 50 0 0,0
01.04.2020 00:00:00 9,5 4,5 8,1 7 4 12 7 ENE 1019,5 36 0 0,0
31.03.2020 23:00:00 10,3 4,0 6,9 4 2 10 6 ESE 1019,3 48 0 0,0
31.03.2020 22:00:00 10,0 4,4 7,2 0 0 14 8 N 1019,0 46 0 0,0
31.03.2020 21:00:00 10,4 5,2 9,1 6 3 19 10 NE 1018,8 45 0 0,0
31.03.2020 20:00:00 10,9 5,2 10,3 10 5 23 13 E 1018,0 44 0 0,0
31.03.2020 19:00:00 11,8 4,7 11,9 18 10 29 15 ESE 1017,8 41 24 0,0
31.03.2020 18:00:00 12,2 6,0 12,9 17 9 31 17 ESE 1017,6 32 6 0,0
31.03.2020 17:00:00 12,4 5,8 13,3 21 12 32 18 ESE 1017,6 33 0 0,0
31.03.2020 16:00:00 12,9 5,8 14,0 22 12 33 18 ESE 1017,7 32 0 0,0
31.03.2020 15:00:00 12,5 6,3 11,7 18 10 30 16 ESE 1017,8 38 0 0,0

tt = Température de l'air
td = dewpoint
tt 5cm = Température de l'air 5cm
ff = Vitesse du vent
fx = gusts
dd = Direction du vent
ppp = reduced air pressure
vv = visibility
sd = Ensoleillement
rr = Quantités de précipitations

stations d'obs. à proximité